Year,Month,Day,Hour,Minute,Value (Times are PST for temperature in C)
2010,08,16,00,00,21.80
2010,08,16,00,01,21.80
2010,08,16,00,02,21.80
2010,08,16,00,03,21.80
2010,08,16,00,04,21.70
2010,08,16,00,05,21.70
2010,08,16,00,06,21.70
2010,08,16,00,07,21.70
2010,08,16,00,08,21.70
2010,08,16,00,09,21.60
2010,08,16,00,10,21.60
2010,08,16,00,11,21.60
2010,08,16,00,12,21.60
2010,08,16,00,13,21.60
2010,08,16,00,14,21.60
2010,08,16,00,15,21.40
2010,08,16,00,16,21.40
2010,08,16,00,17,21.30
2010,08,16,00,18,21.20
2010,08,16,00,19,21.10
2010,08,16,00,20,21.00
2010,08,16,00,21,20.80
2010,08,16,00,22,20.70
2010,08,16,00,23,20.50
2010,08,16,00,24,20.50
2010,08,16,00,25,20.30
2010,08,16,00,26,20.20
2010,08,16,00,27,20.20
2010,08,16,00,28,20.10
2010,08,16,00,29,20.10
2010,08,16,00,30,19.90
2010,08,16,00,31,19.90
2010,08,16,00,32,19.90
2010,08,16,00,33,19.80
2010,08,16,00,34,19.80
2010,08,16,00,35,19.80
2010,08,16,00,36,19.80
2010,08,16,00,37,19.70
2010,08,16,00,38,19.70
2010,08,16,00,39,19.70
2010,08,16,00,40,19.70
2010,08,16,00,41,19.70
2010,08,16,00,42,19.70
2010,08,16,00,43,19.70
2010,08,16,00,44,19.70
2010,08,16,00,45,19.70
2010,08,16,00,46,19.70
2010,08,16,00,47,19.70
2010,08,16,00,48,19.80
2010,08,16,00,49,19.80
2010,08,16,00,50,19.80
2010,08,16,00,51,19.80
2010,08,16,00,52,19.80
2010,08,16,00,53,19.70
2010,08,16,00,54,19.70
2010,08,16,00,55,19.70
2010,08,16,00,56,19.70
2010,08,16,00,57,19.70
2010,08,16,00,58,19.70
2010,08,16,00,59,19.70
2010,08,16,01,00,19.70
2010,08,16,01,01,19.60
2010,08,16,01,02,19.60
2010,08,16,01,03,19.60
2010,08,16,01,04,19.60
2010,08,16,01,05,19.60
2010,08,16,01,06,19.60
2010,08,16,01,07,19.50
2010,08,16,01,08,19.50
2010,08,16,01,09,19.60
2010,08,16,01,10,19.60
2010,08,16,01,11,19.60
2010,08,16,01,12,19.60
2010,08,16,01,13,19.60
2010,08,16,01,14,19.70
2010,08,16,01,15,19.70
2010,08,16,01,16,19.80
2010,08,16,01,17,19.80
2010,08,16,01,18,19.90
2010,08,16,01,19,19.90
2010,08,16,01,20,19.90
2010,08,16,01,21,19.90
2010,08,16,01,22,19.90
2010,08,16,01,23,19.90
2010,08,16,01,24,19.90
2010,08,16,01,25,20.10
2010,08,16,01,26,20.10
2010,08,16,01,27,20.10
2010,08,16,01,28,20.20
2010,08,16,01,29,20.20
2010,08,16,01,30,20.20
2010,08,16,01,31,20.20
2010,08,16,01,32,20.20
2010,08,16,01,33,20.20
2010,08,16,01,34,20.30
2010,08,16,01,35,20.30
2010,08,16,01,36,20.30
2010,08,16,01,37,20.30
2010,08,16,01,38,20.30
2010,08,16,01,39,20.30
2010,08,16,01,40,20.30
2010,08,16,01,41,20.30
2010,08,16,01,42,20.30
2010,08,16,01,43,20.20
2010,08,16,01,44,20.20
2010,08,16,01,45,20.20
2010,08,16,01,46,20.20
2010,08,16,01,47,20.20
2010,08,16,01,48,20.20
2010,08,16,01,49,20.10
2010,08,16,01,50,20.10
2010,08,16,01,51,20.00
2010,08,16,01,52,19.90
2010,08,16,01,53,19.90
2010,08,16,01,54,19.90
2010,08,16,01,55,19.90
2010,08,16,01,56,19.80
2010,08,16,01,57,19.80
2010,08,16,01,58,19.70
2010,08,16,01,59,19.70
2010,08,16,02,00,19.70
2010,08,16,02,01,19.70
2010,08,16,02,02,19.70
2010,08,16,02,03,19.60
2010,08,16,02,04,19.60
2010,08,16,02,05,19.60
2010,08,16,02,06,19.60
2010,08,16,02,07,19.50
2010,08,16,02,08,19.50
2010,08,16,02,09,19.50
2010,08,16,02,10,19.50
2010,08,16,02,11,19.60
2010,08,16,02,12,19.60
2010,08,16,02,13,19.60
2010,08,16,02,14,19.60
2010,08,16,02,15,19.70
2010,08,16,02,16,19.70
2010,08,16,02,17,19.70
2010,08,16,02,18,19.70
2010,08,16,02,19,19.70
2010,08,16,02,20,19.70
2010,08,16,02,21,19.70
2010,08,16,02,22,19.70
2010,08,16,02,23,19.70
2010,08,16,02,24,19.60
2010,08,16,02,25,19.60
2010,08,16,02,26,19.60
2010,08,16,02,27,19.60
2010,08,16,02,28,19.60
2010,08,16,02,29,19.70
2010,08,16,02,30,19.70
2010,08,16,02,31,19.70
2010,08,16,02,32,19.70
2010,08,16,02,33,19.70
2010,08,16,02,34,19.70
2010,08,16,02,35,19.80
2010,08,16,02,36,19.70
2010,08,16,02,37,19.70
2010,08,16,02,38,19.70
2010,08,16,02,39,19.70
2010,08,16,02,40,19.70
2010,08,16,02,41,19.80
2010,08,16,02,42,19.80
2010,08,16,02,43,19.80
2010,08,16,02,44,19.90
2010,08,16,02,45,19.90
2010,08,16,02,46,19.90
2010,08,16,02,47,19.90
2010,08,16,02,48,19.80
2010,08,16,02,49,19.80
2010,08,16,02,50,19.80
2010,08,16,02,51,19.80
2010,08,16,02,52,19.70
2010,08,16,02,53,19.70
2010,08,16,02,54,19.60
2010,08,16,02,55,19.60
2010,08,16,02,56,19.50
2010,08,16,02,57,19.50
2010,08,16,02,58,19.40
2010,08,16,02,59,19.40
2010,08,16,03,00,19.30
2010,08,16,03,01,19.30
2010,08,16,03,02,19.20
2010,08,16,03,03,19.20
2010,08,16,03,04,19.20
2010,08,16,03,05,19.20
2010,08,16,03,06,19.10
2010,08,16,03,07,19.10
2010,08,16,03,08,19.10
2010,08,16,03,09,19.10
2010,08,16,03,10,19.10
2010,08,16,03,11,19.10
2010,08,16,03,12,19.10
2010,08,16,03,13,19.10
2010,08,16,03,14,19.10
2010,08,16,03,15,19.10
2010,08,16,03,16,19.10
2010,08,16,03,17,19.10
2010,08,16,03,18,19.10
2010,08,16,03,19,19.10
2010,08,16,03,20,19.10
2010,08,16,03,21,19.10
2010,08,16,03,22,19.10
2010,08,16,03,23,19.10
2010,08,16,03,24,19.00
2010,08,16,03,25,18.90
2010,08,16,03,26,18.90
2010,08,16,03,27,18.90
2010,08,16,03,28,18.90
2010,08,16,03,29,18.90
2010,08,16,03,30,18.90
2010,08,16,03,31,18.80
2010,08,16,03,32,18.80
2010,08,16,03,33,18.80
2010,08,16,03,34,18.70
2010,08,16,03,35,18.70
2010,08,16,03,36,18.60
2010,08,16,03,37,18.60
2010,08,16,03,38,18.60
2010,08,16,03,39,18.50
2010,08,16,03,40,18.50
2010,08,16,03,41,18.50
2010,08,16,03,42,18.50
2010,08,16,03,43,18.50
2010,08,16,03,44,18.50
2010,08,16,03,45,18.50
2010,08,16,03,46,18.50
2010,08,16,03,47,18.40
2010,08,16,03,48,18.40
2010,08,16,03,49,18.50
2010,08,16,03,50,18.50
2010,08,16,03,51,18.50
2010,08,16,03,52,18.50
2010,08,16,03,53,18.50
2010,08,16,03,54,18.50
2010,08,16,03,55,18.50
2010,08,16,03,56,18.50
2010,08,16,03,57,18.50
2010,08,16,03,58,18.50
2010,08,16,03,59,18.50
2010,08,16,04,00,18.50
2010,08,16,04,01,18.50
2010,08,16,04,02,18.50
2010,08,16,04,03,18.50
2010,08,16,04,04,18.60
2010,08,16,04,05,18.60
2010,08,16,04,06,18.60
2010,08,16,04,07,18.60
2010,08,16,04,08,18.60
2010,08,16,04,09,18.60
2010,08,16,04,10,18.60
2010,08,16,04,11,18.50
2010,08,16,04,12,18.50
2010,08,16,04,13,18.50
2010,08,16,04,14,18.50
2010,08,16,04,15,18.50
2010,08,16,04,16,18.40
2010,08,16,04,17,18.40
2010,08,16,04,18,18.40
2010,08,16,04,19,18.40
2010,08,16,04,20,18.40
2010,08,16,04,21,18.30
2010,08,16,04,22,18.30
2010,08,16,04,23,18.30
2010,08,16,04,24,18.30
2010,08,16,04,25,18.30
2010,08,16,04,26,18.30
2010,08,16,04,27,18.30
2010,08,16,04,28,18.30
2010,08,16,04,29,18.30
2010,08,16,04,30,18.40
2010,08,16,04,31,18.40
2010,08,16,04,32,18.40
2010,08,16,04,33,18.40
2010,08,16,04,34,18.40
2010,08,16,04,35,18.40
2010,08,16,04,36,18.40
2010,08,16,04,37,18.30
2010,08,16,04,38,18.30
2010,08,16,04,39,18.20
2010,08,16,04,40,18.20
2010,08,16,04,41,18.20
2010,08,16,04,42,18.10
2010,08,16,04,43,18.10
2010,08,16,04,44,18.00
2010,08,16,04,45,17.90
2010,08,16,04,46,17.90
2010,08,16,04,47,17.80
2010,08,16,04,48,17.80
2010,08,16,04,49,17.70
2010,08,16,04,50,17.60
2010,08,16,04,51,17.50
2010,08,16,04,52,17.40
2010,08,16,04,53,17.40
2010,08,16,04,54,17.30
2010,08,16,04,55,17.30
2010,08,16,04,56,17.30
2010,08,16,04,57,17.30
2010,08,16,04,58,17.20
2010,08,16,04,59,17.20
2010,08,16,05,00,17.10
2010,08,16,05,01,17.10
2010,08,16,05,02,17.10
2010,08,16,05,03,17.10
2010,08,16,05,04,17.00
2010,08,16,05,05,17.00
2010,08,16,05,06,17.00
2010,08,16,05,07,16.90
2010,08,16,05,08,16.90
2010,08,16,05,09,16.80
2010,08,16,05,10,16.80
2010,08,16,05,11,16.70
2010,08,16,05,12,16.70
2010,08,16,05,13,16.70
2010,08,16,05,14,16.70
2010,08,16,05,15,16.70
2010,08,16,05,16,16.70
2010,08,16,05,17,16.70
2010,08,16,05,18,16.70
2010,08,16,05,19,16.70
2010,08,16,05,20,16.60
2010,08,16,05,21,16.60
2010,08,16,05,22,16.60
2010,08,16,05,23,16.60
2010,08,16,05,24,16.50
2010,08,16,05,25,16.40
2010,08,16,05,26,16.40
2010,08,16,05,27,16.40
2010,08,16,05,28,16.40
2010,08,16,05,29,16.40
2010,08,16,05,30,16.40
2010,08,16,05,31,16.40
2010,08,16,05,32,16.30
2010,08,16,05,33,16.30
2010,08,16,05,34,16.30
2010,08,16,05,35,16.30
2010,08,16,05,36,16.30
2010,08,16,05,37,16.30
2010,08,16,05,38,16.20
2010,08,16,05,39,16.20
2010,08,16,05,40,16.20
2010,08,16,05,41,16.30
2010,08,16,05,42,16.30
2010,08,16,05,43,16.30
2010,08,16,05,44,16.30
2010,08,16,05,45,16.30
2010,08,16,05,46,16.30
2010,08,16,05,47,16.30
2010,08,16,05,48,16.30
2010,08,16,05,49,16.30
2010,08,16,05,50,16.30
2010,08,16,05,51,16.20
2010,08,16,05,52,16.20
2010,08,16,05,53,16.20
2010,08,16,05,54,16.20
2010,08,16,05,55,16.20
2010,08,16,05,56,16.10
2010,08,16,05,57,16.10
2010,08,16,05,58,16.10
2010,08,16,05,59,16.10
2010,08,16,06,00,16.10
2010,08,16,06,01,16.10
2010,08,16,06,02,16.10
2010,08,16,06,03,16.10
2010,08,16,06,04,16.10
2010,08,16,06,05,16.10
2010,08,16,06,06,16.10
2010,08,16,06,07,16.10
2010,08,16,06,08,16.10
2010,08,16,06,09,16.10
2010,08,16,06,10,16.10
2010,08,16,06,11,16.10
2010,08,16,06,12,16.10
2010,08,16,06,13,16.10
2010,08,16,06,14,16.10
2010,08,16,06,15,16.10
2010,08,16,06,16,16.10
2010,08,16,06,17,16.10
2010,08,16,06,18,16.20
2010,08,16,06,19,16.20
2010,08,16,06,20,16.20
2010,08,16,06,21,16.20
2010,08,16,06,22,16.20
2010,08,16,06,23,16.20
2010,08,16,06,24,16.10
2010,08,16,06,25,16.10
2010,08,16,06,26,16.10
2010,08,16,06,27,16.10
2010,08,16,06,28,16.10
2010,08,16,06,29,16.10
2010,08,16,06,30,16.10
2010,08,16,06,31,16.10
2010,08,16,06,32,16.10
2010,08,16,06,33,16.10
2010,08,16,06,34,16.10
2010,08,16,06,35,16.10
2010,08,16,06,36,16.10
2010,08,16,06,37,16.10
2010,08,16,06,38,16.20
2010,08,16,06,39,16.20
2010,08,16,06,40,16.30
2010,08,16,06,41,16.30
2010,08,16,06,42,16.30
2010,08,16,06,43,16.30
2010,08,16,06,44,16.40
2010,08,16,06,45,16.40
2010,08,16,06,46,16.40
2010,08,16,06,47,16.50
2010,08,16,06,48,16.60
2010,08,16,06,49,16.60
2010,08,16,06,50,16.70
2010,08,16,06,51,16.70
2010,08,16,06,52,16.70
2010,08,16,06,53,16.70
2010,08,16,06,54,16.70
2010,08,16,06,55,16.80
2010,08,16,06,56,16.80
2010,08,16,06,57,16.80
2010,08,16,06,58,16.90
2010,08,16,06,59,16.90
2010,08,16,07,00,16.90
2010,08,16,07,01,16.90
2010,08,16,07,02,17.00
2010,08,16,07,03,17.00
2010,08,16,07,04,17.00
2010,08,16,07,05,17.10
2010,08,16,07,06,17.10
2010,08,16,07,07,17.10
2010,08,16,07,08,17.20
2010,08,16,07,09,17.20
2010,08,16,07,10,17.20
2010,08,16,07,11,17.30
2010,08,16,07,12,17.30
2010,08,16,07,13,17.30
2010,08,16,07,14,17.30
2010,08,16,07,15,17.40
2010,08,16,07,16,17.50
2010,08,16,07,17,17.50
2010,08,16,07,18,17.50
2010,08,16,07,19,17.60
2010,08,16,07,20,17.60
2010,08,16,07,21,17.70
2010,08,16,07,22,17.70
2010,08,16,07,23,17.70
2010,08,16,07,24,17.80
2010,08,16,07,25,17.90
2010,08,16,07,26,17.90
2010,08,16,07,27,17.90
2010,08,16,07,28,18.00
2010,08,16,07,29,18.10
2010,08,16,07,30,18.10
2010,08,16,07,31,18.20
2010,08,16,07,32,18.20
2010,08,16,07,33,18.20
2010,08,16,07,34,18.20
2010,08,16,07,35,18.20
2010,08,16,07,36,18.20
2010,08,16,07,37,18.30
2010,08,16,07,38,18.30
2010,08,16,07,39,18.40
2010,08,16,07,40,18.40
2010,08,16,07,41,18.40
2010,08,16,07,42,18.50
2010,08,16,07,43,18.50
2010,08,16,07,44,18.60
2010,08,16,07,45,18.60
2010,08,16,07,46,18.70
2010,08,16,07,47,18.80
2010,08,16,07,48,18.90
2010,08,16,07,49,18.90
2010,08,16,07,50,19.00
2010,08,16,07,51,19.10
2010,08,16,07,52,19.20
2010,08,16,07,53,19.30
2010,08,16,07,54,19.40
2010,08,16,07,55,19.50
2010,08,16,07,56,19.60
2010,08,16,07,57,19.60
2010,08,16,07,58,19.70
2010,08,16,07,59,19.80
2010,08,16,08,00,19.80
2010,08,16,08,01,19.90
2010,08,16,08,02,19.90
2010,08,16,08,03,20.10
2010,08,16,08,04,20.20
2010,08,16,08,05,20.20
2010,08,16,08,06,20.20
2010,08,16,08,07,20.20
2010,08,16,08,08,20.20
2010,08,16,08,09,20.30
2010,08,16,08,10,20.30
2010,08,16,08,11,20.40
2010,08,16,08,12,20.40
2010,08,16,08,13,20.40
2010,08,16,08,14,20.50
2010,08,16,08,15,20.50
2010,08,16,08,16,20.60
2010,08,16,08,17,20.60
2010,08,16,08,18,20.70
2010,08,16,08,19,20.70
2010,08,16,08,20,20.80
2010,08,16,08,21,20.80
2010,08,16,08,22,20.90
2010,08,16,08,23,20.90
2010,08,16,08,24,21.00
2010,08,16,08,25,21.00
2010,08,16,08,26,21.10
2010,08,16,08,27,21.10
2010,08,16,08,28,21.20
2010,08,16,08,29,21.30
2010,08,16,08,30,21.30
2010,08,16,08,31,21.40
2010,08,16,08,32,21.50
2010,08,16,08,33,21.60
2010,08,16,08,34,21.70
2010,08,16,08,35,21.80
2010,08,16,08,36,21.90
2010,08,16,08,37,21.90
2010,08,16,08,38,22.00
2010,08,16,08,39,22.10
2010,08,16,08,40,22.20
2010,08,16,08,41,22.30
2010,08,16,08,42,22.30
2010,08,16,08,43,22.30
2010,08,16,08,44,22.40
2010,08,16,08,45,22.50
2010,08,16,08,46,22.50
2010,08,16,08,47,22.50
2010,08,16,08,48,22.50
2010,08,16,08,49,22.50
2010,08,16,08,50,22.50
2010,08,16,08,51,22.50
2010,08,16,08,52,22.40
2010,08,16,08,53,22.40
2010,08,16,08,54,22.40
2010,08,16,08,55,22.30
2010,08,16,08,56,22.30
2010,08,16,08,57,22.20
2010,08,16,08,58,22.20
2010,08,16,08,59,22.30
2010,08,16,09,00,22.30
2010,08,16,09,01,22.30
2010,08,16,09,02,22.30
2010,08,16,09,03,22.40
2010,08,16,09,04,22.50
2010,08,16,09,05,22.50
2010,08,16,09,06,22.60
2010,08,16,09,07,22.60
2010,08,16,09,08,22.60
2010,08,16,09,09,22.70
2010,08,16,09,10,22.70
2010,08,16,09,11,22.70
2010,08,16,09,12,22.70
2010,08,16,09,13,22.80
2010,08,16,09,14,22.80
2010,08,16,09,15,22.80
2010,08,16,09,16,22.80
2010,08,16,09,17,22.80
2010,08,16,09,18,22.80
2010,08,16,09,19,22.80
2010,08,16,09,20,22.90
2010,08,16,09,21,22.90
2010,08,16,09,22,22.90
2010,08,16,09,23,22.90
2010,08,16,09,24,22.90
2010,08,16,09,25,22.90
2010,08,16,09,26,22.90
2010,08,16,09,27,22.90
2010,08,16,09,28,22.90
2010,08,16,09,29,22.90
2010,08,16,09,30,22.90
2010,08,16,09,31,23.10
2010,08,16,09,32,23.10
2010,08,16,09,33,23.10
2010,08,16,09,34,23.10
2010,08,16,09,35,23.10
2010,08,16,09,36,23.10
2010,08,16,09,37,22.90
2010,08,16,09,38,22.90
2010,08,16,09,39,22.90
2010,08,16,09,40,22.90
2010,08,16,09,41,22.90
2010,08,16,09,42,22.90
2010,08,16,09,43,22.90
2010,08,16,09,44,22.90
2010,08,16,09,45,23.00
2010,08,16,09,46,23.10
2010,08,16,09,47,23.10
2010,08,16,09,48,23.20
2010,08,16,09,49,23.20
2010,08,16,09,50,23.30
2010,08,16,09,51,23.30
2010,08,16,09,52,23.40
2010,08,16,09,53,23.50
2010,08,16,09,54,23.60
2010,08,16,09,55,23.60
2010,08,16,09,56,23.70
2010,08,16,09,57,23.70
2010,08,16,09,58,23.70
2010,08,16,09,59,23.80
2010,08,16,10,00,23.80
2010,08,16,10,01,23.80
2010,08,16,10,02,23.80
2010,08,16,10,03,23.80
2010,08,16,10,04,23.80
2010,08,16,10,05,23.80
2010,08,16,10,06,23.70
2010,08,16,10,07,23.70
2010,08,16,10,08,23.70
2010,08,16,10,09,23.70
2010,08,16,10,10,23.70
2010,08,16,10,11,23.70
2010,08,16,10,12,23.70
2010,08,16,10,13,23.60
2010,08,16,10,14,23.60
2010,08,16,10,15,23.50
2010,08,16,10,16,23.40
2010,08,16,10,17,23.40
2010,08,16,10,18,23.40
2010,08,16,10,19,23.40
2010,08,16,10,20,23.40
2010,08,16,10,21,23.40
2010,08,16,10,22,23.40
2010,08,16,10,23,23.50
2010,08,16,10,24,23.60
2010,08,16,10,25,23.60
2010,08,16,10,26,23.60
2010,08,16,10,27,23.70
2010,08,16,10,28,23.70
2010,08,16,10,29,23.70
2010,08,16,10,30,23.70
2010,08,16,10,31,23.70
2010,08,16,10,32,23.70
2010,08,16,10,33,23.70
2010,08,16,10,34,23.70
2010,08,16,10,35,23.70
2010,08,16,10,36,23.70
2010,08,16,10,37,23.70
2010,08,16,10,38,23.70
2010,08,16,10,39,23.70
2010,08,16,10,40,23.50
2010,08,16,10,41,23.30
2010,08,16,10,42,23.20
2010,08,16,10,43,23.00
2010,08,16,10,44,22.90
2010,08,16,10,45,22.80
2010,08,16,10,46,22.60
2010,08,16,10,47,22.50
2010,08,16,10,48,22.20
2010,08,16,10,49,22.10
2010,08,16,10,50,22.00
2010,08,16,10,51,22.00
2010,08,16,10,52,21.90
2010,08,16,10,53,21.90
2010,08,16,10,54,21.80
2010,08,16,10,55,21.70
2010,08,16,10,56,21.70
2010,08,16,10,57,21.70
2010,08,16,10,58,21.80
2010,08,16,10,59,21.80
2010,08,16,11,00,21.90
2010,08,16,11,01,22.00
2010,08,16,11,02,22.10
2010,08,16,11,03,22.10
2010,08,16,11,04,22.20
2010,08,16,11,05,22.30
2010,08,16,11,06,22.30
2010,08,16,11,07,22.30
2010,08,16,11,08,22.20
2010,08,16,11,09,22.00
2010,08,16,11,10,21.80
2010,08,16,11,11,21.70
2010,08,16,11,12,21.60
2010,08,16,11,13,21.60
2010,08,16,11,14,21.60
2010,08,16,11,15,21.60
2010,08,16,11,16,21.70
2010,08,16,11,17,21.70
2010,08,16,11,18,21.80
2010,08,16,11,19,21.80
2010,08,16,11,20,21.80
2010,08,16,11,21,21.80
2010,08,16,11,22,21.90
2010,08,16,11,23,22.00
2010,08,16,11,24,22.10
2010,08,16,11,25,22.20
2010,08,16,11,26,22.30
2010,08,16,11,27,22.40
2010,08,16,11,28,22.50
2010,08,16,11,29,22.40
2010,08,16,11,30,22.40
2010,08,16,11,31,22.40
2010,08,16,11,32,22.50
2010,08,16,11,33,22.60
2010,08,16,11,34,22.60
2010,08,16,11,35,22.70
2010,08,16,11,36,22.70
2010,08,16,11,37,22.70
2010,08,16,11,38,22.70
2010,08,16,11,39,22.80
2010,08,16,11,40,22.90
2010,08,16,11,41,23.00
2010,08,16,11,42,23.10
2010,08,16,11,43,23.20
2010,08,16,11,44,23.30
2010,08,16,11,45,23.50
2010,08,16,11,46,23.60
2010,08,16,11,47,23.70
2010,08,16,11,48,23.80
2010,08,16,11,49,24.00
2010,08,16,11,50,24.10
2010,08,16,11,51,24.20
2010,08,16,11,52,24.30
2010,08,16,11,53,24.50
2010,08,16,11,54,24.60
2010,08,16,11,55,24.70
2010,08,16,11,56,24.80
2010,08,16,11,57,24.80
2010,08,16,11,58,24.90
2010,08,16,11,59,25.00
2010,08,16,12,00,25.00
2010,08,16,12,01,25.10
2010,08,16,12,02,25.20
2010,08,16,12,03,25.40
2010,08,16,12,04,25.50
2010,08,16,12,05,25.50
2010,08,16,12,06,25.60
2010,08,16,12,07,25.70
2010,08,16,12,08,25.70
2010,08,16,12,09,25.80
2010,08,16,12,10,25.90
2010,08,16,12,11,25.90
2010,08,16,12,12,26.10
2010,08,16,12,13,26.20
2010,08,16,12,14,26.20
2010,08,16,12,15,26.30
2010,08,16,12,16,26.30
2010,08,16,12,17,26.50
2010,08,16,12,18,26.60
2010,08,16,12,19,26.60
2010,08,16,12,20,26.70
2010,08,16,12,21,26.80
2010,08,16,12,22,26.80
2010,08,16,12,23,27.00
2010,08,16,12,24,27.10
2010,08,16,12,25,27.10
2010,08,16,12,26,27.20
2010,08,16,12,27,27.20
2010,08,16,12,28,27.20
2010,08,16,12,29,27.20
2010,08,16,12,30,27.20
2010,08,16,12,31,27.10
2010,08,16,12,32,27.10
2010,08,16,12,33,27.10
2010,08,16,12,34,27.10
2010,08,16,12,35,27.20
2010,08,16,12,36,27.20
2010,08,16,12,37,27.20
2010,08,16,12,38,27.20
2010,08,16,12,39,27.10
2010,08,16,12,40,27.10
2010,08,16,12,41,27.10
2010,08,16,12,42,27.10
2010,08,16,12,43,27.10
2010,08,16,12,44,27.10
2010,08,16,12,45,27.10
2010,08,16,12,46,27.00
2010,08,16,12,47,26.90
2010,08,16,12,48,26.90
2010,08,16,12,49,26.90
2010,08,16,12,50,27.10
2010,08,16,12,51,27.10
2010,08,16,12,52,27.10
2010,08,16,12,53,27.00
2010,08,16,12,54,27.10
2010,08,16,12,55,27.10
2010,08,16,12,56,27.10
2010,08,16,12,57,27.10
2010,08,16,12,58,27.00
2010,08,16,12,59,26.90
2010,08,16,13,00,26.80
2010,08,16,13,01,26.70
2010,08,16,13,02,26.70
2010,08,16,13,03,26.70
2010,08,16,13,04,26.60
2010,08,16,13,05,26.70
2010,08,16,13,06,26.70
2010,08,16,13,07,26.70
2010,08,16,13,08,26.70
2010,08,16,13,09,26.70
2010,08,16,13,10,26.80
2010,08,16,13,11,26.80
2010,08,16,13,12,26.90
2010,08,16,13,13,26.90
2010,08,16,13,14,26.90
2010,08,16,13,15,26.90
2010,08,16,13,16,27.00
2010,08,16,13,17,27.10
2010,08,16,13,18,26.90
2010,08,16,13,19,26.90
2010,08,16,13,20,26.80
2010,08,16,13,21,26.80
2010,08,16,13,22,26.80
2010,08,16,13,23,26.80
2010,08,16,13,24,26.80
2010,08,16,13,25,26.80
2010,08,16,13,26,26.80
2010,08,16,13,27,26.70
2010,08,16,13,28,26.60
2010,08,16,13,29,26.60
2010,08,16,13,30,26.60
2010,08,16,13,31,26.60
2010,08,16,13,32,26.70
2010,08,16,13,33,26.80
2010,08,16,13,34,27.00
2010,08,16,13,35,27.10
2010,08,16,13,36,27.20
2010,08,16,13,37,27.30
2010,08,16,13,38,27.40
2010,08,16,13,39,27.60
2010,08,16,13,40,27.70
2010,08,16,13,41,27.80
2010,08,16,13,42,27.90
2010,08,16,13,43,27.90
2010,08,16,13,44,27.90
2010,08,16,13,45,27.90
2010,08,16,13,46,27.90
2010,08,16,13,47,28.00
2010,08,16,13,48,28.00
2010,08,16,13,49,28.20
2010,08,16,13,50,28.20
2010,08,16,13,51,28.30
2010,08,16,13,52,28.40
2010,08,16,13,53,28.40
2010,08,16,13,54,28.50
2010,08,16,13,55,28.60
2010,08,16,13,56,28.70
2010,08,16,13,57,28.80
2010,08,16,13,58,28.80
2010,08,16,13,59,28.80
2010,08,16,14,00,28.90
2010,08,16,14,01,28.80
2010,08,16,14,02,28.80
2010,08,16,14,03,28.80
2010,08,16,14,04,28.80
2010,08,16,14,05,28.80
2010,08,16,14,06,28.80
2010,08,16,14,07,28.80
2010,08,16,14,08,28.70
2010,08,16,14,09,28.60
2010,08,16,14,10,28.40
2010,08,16,14,11,28.30
2010,08,16,14,12,28.30
2010,08,16,14,13,28.20
2010,08,16,14,14,28.20
2010,08,16,14,15,28.20
2010,08,16,14,16,28.10
2010,08,16,14,17,28.00
2010,08,16,14,18,27.90
2010,08,16,14,19,27.80
2010,08,16,14,20,27.80
2010,08,16,14,21,27.70
2010,08,16,14,22,27.70
2010,08,16,14,23,27.70
2010,08,16,14,24,27.70
2010,08,16,14,25,27.70
2010,08,16,14,26,27.70
2010,08,16,14,27,27.70
2010,08,16,14,28,27.80
2010,08,16,14,29,27.90
2010,08,16,14,30,27.90
2010,08,16,14,31,27.90
2010,08,16,14,32,27.90
2010,08,16,14,33,27.90
2010,08,16,14,34,27.80
2010,08,16,14,35,27.80
2010,08,16,14,36,27.80
2010,08,16,14,37,27.90
2010,08,16,14,38,27.90
2010,08,16,14,39,28.00
2010,08,16,14,40,28.00
2010,08,16,14,41,28.10
2010,08,16,14,42,28.00
2010,08,16,14,43,28.00
2010,08,16,14,44,28.00
2010,08,16,14,45,28.00
2010,08,16,14,46,28.00
2010,08,16,14,47,28.00
2010,08,16,14,48,28.00
2010,08,16,14,49,28.00
2010,08,16,14,50,28.00
2010,08,16,14,51,28.10
2010,08,16,14,52,28.10
2010,08,16,14,53,28.10
2010,08,16,14,54,28.10
2010,08,16,14,55,28.10
2010,08,16,14,56,28.10
2010,08,16,14,57,28.20
2010,08,16,14,58,28.30
2010,08,16,14,59,28.40
2010,08,16,15,00,28.40
2010,08,16,15,01,28.50
2010,08,16,15,02,28.60
2010,08,16,15,03,28.70
2010,08,16,15,04,28.70
2010,08,16,15,05,28.60
2010,08,16,15,06,28.50
2010,08,16,15,07,28.30
2010,08,16,15,08,28.20
2010,08,16,15,09,28.20
2010,08,16,15,10,28.20
2010,08,16,15,11,28.30
2010,08,16,15,12,28.30
2010,08,16,15,13,28.30
2010,08,16,15,14,28.30
2010,08,16,15,15,28.30
2010,08,16,15,16,28.20
2010,08,16,15,17,28.20
2010,08,16,15,18,28.30
2010,08,16,15,19,28.20
2010,08,16,15,20,28.20
2010,08,16,15,21,28.20
2010,08,16,15,22,28.20
2010,08,16,15,23,28.30
2010,08,16,15,24,28.40
2010,08,16,15,25,28.40
2010,08,16,15,26,28.40
2010,08,16,15,27,28.40
2010,08,16,15,28,28.40
2010,08,16,15,29,28.50
2010,08,16,15,30,28.60
2010,08,16,15,31,28.70
2010,08,16,15,32,28.80
2010,08,16,15,33,28.80
2010,08,16,15,34,28.80
2010,08,16,15,35,28.80
2010,08,16,15,36,28.90
2010,08,16,15,37,28.90
2010,08,16,15,38,28.90
2010,08,16,15,39,28.90
2010,08,16,15,40,28.90
2010,08,16,15,41,28.90
2010,08,16,15,42,28.90
2010,08,16,15,43,29.00
2010,08,16,15,44,29.10
2010,08,16,15,45,29.10
2010,08,16,15,46,29.30
2010,08,16,15,47,29.40
2010,08,16,15,48,29.50
2010,08,16,15,49,29.50
2010,08,16,15,50,29.50
2010,08,16,15,51,29.50
2010,08,16,15,52,29.50
2010,08,16,15,53,29.60
2010,08,16,15,54,29.60
2010,08,16,15,55,29.70
2010,08,16,15,56,29.70
2010,08,16,15,57,29.80
2010,08,16,15,58,29.70
2010,08,16,15,59,29.60
2010,08,16,16,00,29.50
2010,08,16,16,01,29.40
2010,08,16,16,02,29.30
2010,08,16,16,03,29.30
2010,08,16,16,04,29.30
2010,08,16,16,05,29.30
2010,08,16,16,06,29.30
2010,08,16,16,07,29.30
2010,08,16,16,08,29.30
2010,08,16,16,09,29.30
2010,08,16,16,10,29.40
2010,08,16,16,11,29.50
2010,08,16,16,12,29.50
2010,08,16,16,13,29.50
2010,08,16,16,14,29.50
2010,08,16,16,15,29.40
2010,08,16,16,16,29.40
2010,08,16,16,17,29.40
2010,08,16,16,18,29.40
2010,08,16,16,19,29.50
2010,08,16,16,20,29.40
2010,08,16,16,21,29.40
2010,08,16,16,22,29.40
2010,08,16,16,23,29.50
2010,08,16,16,24,29.50
2010,08,16,16,25,29.60
2010,08,16,16,26,29.60
2010,08,16,16,27,29.60
2010,08,16,16,28,29.60
2010,08,16,16,29,29.60
2010,08,16,16,30,29.60
2010,08,16,16,31,29.60
2010,08,16,16,32,29.50
2010,08,16,16,33,29.50
2010,08,16,16,34,29.40
2010,08,16,16,35,29.40
2010,08,16,16,36,29.40
2010,08,16,16,37,29.40
2010,08,16,16,38,29.40
2010,08,16,16,39,29.30
2010,08,16,16,40,29.20
2010,08,16,16,41,29.20
2010,08,16,16,42,29.30
2010,08,16,16,43,29.30
2010,08,16,16,44,29.30
2010,08,16,16,45,29.40
2010,08,16,16,46,29.40
2010,08,16,16,47,29.40
2010,08,16,16,48,29.40
2010,08,16,16,49,29.50
2010,08,16,16,50,29.50
2010,08,16,16,51,29.50
2010,08,16,16,52,29.50
2010,08,16,16,53,29.50
2010,08,16,16,54,29.40
2010,08,16,16,55,29.30
2010,08,16,16,56,29.20
2010,08,16,16,57,29.10
2010,08,16,16,58,29.10
2010,08,16,16,59,29.00
2010,08,16,17,00,28.90
2010,08,16,17,01,28.90
2010,08,16,17,02,28.90
2010,08,16,17,03,28.90
2010,08,16,17,04,28.90
2010,08,16,17,05,28.90
2010,08,16,17,06,28.90
2010,08,16,17,07,28.90
2010,08,16,17,08,28.90
2010,08,16,17,09,28.90
2010,08,16,17,10,28.90
2010,08,16,17,11,28.90
2010,08,16,17,12,28.90
2010,08,16,17,13,28.90
2010,08,16,17,14,28.90
2010,08,16,17,15,28.80
2010,08,16,17,16,28.80
2010,08,16,17,17,28.80
2010,08,16,17,18,28.90
2010,08,16,17,19,28.90